1st Responders/1st Detectors/Storm Spotters Weather Summary for Carroll County, KY

Forecast Maps


Reg. NEXRAD Animation


National Fire Danger: Day 1 & 2 Map

Current NWS Watch/Warnings

SPC Convective Day 1 Outlook


Day 2 Outlook

(Click images to enlarge|Page will refresh every 5 minutes)
UK Ag. Weather Center Desktop Severe Weather Service[HERE]
Carroll County, KY Hazardous Weather Outlook Webcast
(9 AM to 9 PM Mon-Fri)
[Fast]
[Dial-up]


UKAWC 1st Detectors/1st Responders Precision Weather Forecast For CARROLL County, Kentucky
(based on the NWS County Digital Forecast)

ISSUED AT 01:00 UTC ON SUNDAY JAN 20 2019
DAY SATURDAY SUNDAY
EDT 3HR 10P 11P MIDN 1A 2A 3A 4A 5A 6A 7A 8A 9A 10A 11A NOON 1P 2P 3P 4P 5P 6P 7P
MAX/MIN -- -- -- -- -- -- -- -- -- -- 16° -- -- -- -- -- -- -- -- -- -- 18°
TEMP 32° 29° 27° 27° 25° 23° 22° 22° 20° 18° 16° 16° 14° 13° 16° 16° 18° 18° 18° 18° 18° 16°
SKY COVER 99% 98% 97% 93% 93% 88% 82% 78% 69% 79% 73% 65% 57% 50% 45% 43% 33% 35% 40% 46% 52% 58%
Clouds
DEW PT 31° 29° 25° 25° 22° 20° 18° 16° 14° 13° 11°
RH 92% 95% 92% 91% 91% 88% 84% 80% 80% 80% 76% 76% 76% 76% 69% 67% 64% 66% 67% 64% 67% 73%
POP 12HR -- -- -- -- -- -- -- -- -- -- 88% -- -- -- -- -- -- -- -- -- -- --
RAIN/SNOW (liq.equ) -- -- -- -- 0.40in -- -- -- -- -- 0.09in -- -- -- -- -- 0.00in -- -- -- -- --
SNOWFALL -- -- -- -- 1in -- -- -- -- -- 1in -- -- -- -- -- 0in -- -- -- -- --
WIND SPEED(MPH) 18 18 18 18 17 16 16 15 15 15 15 14 14 13 10 10 9 9 9 9 9 8
WIND Gust(MPH) 35 35 37 37 37 37 37 35 32 29 25 24 23 23 23 22 21 18 17 16 15 14
WIND DIR N N N N N N N N N N N N N N N N N N N N N N
DEW -- -- -- -- -- -- -- -- -- -- -- -- -- -- -- -- -- Freeze Freeze Freeze Freeze Freeze
HeatIndex 21 17 14 13 11 10 9 8 5 3 2 1 0 0 2 4 6 6 6 7 6 5
Snow -- Definite Definite Definite Definite Likely Chance -- -- -- -- -- -- -- -- -- -- -- -- -- -- --
Snow Showers -- -- -- -- -- -- -- -- -- -- -- -- -- -- -- -- -- -- -- -- -- --
Rain Definite -- -- -- -- -- -- -- -- -- -- -- -- -- -- -- -- -- -- -- -- --
Rain Showers -- -- -- -- -- -- -- -- -- -- -- -- -- -- -- -- -- -- -- -- -- --
WIND CHILL 21° 17° 14° 14° 12° 10°
SPRAY COND
DRY COND
LIVESTOCK COLDSTRESS



DAY MONDAY TUESDAY WEDNESDAY THURSDAY FRIDAY SATURDAY
EDT 6HR 8P 9P 10P 11P MIDN 1A 2A 3A 4A 5A 6A 7A 8A 9A 11A 2P 5P 8P 11P 2A 5A 8A 11A 2P 5P 8P 2A 8A 2P 8P 2A 8A 2P 8P 2A 8A 2P 8P 2A 8A 2P 8P
MAX/MIN -- -- -- -- -- -- -- -- -- -- -- -- -- -- -- 22° -- -- -- -- 16° -- -- 45° -- -- 38° 43° -- -- 25° 34° -- -- 22° 29° -- -- 13° 27° --
TEMP 16° 14° 13° 13° 11° 11° 11° 11° 11° 11° 13° 18° 22° 18° 18° 18° 20° 20° 29° 40° 43° 41° 45° 41° 38° 34° 29° 25° 32° 29° 27° 22° 29° 23° 18° 14° 25° 22°
SKY COVER 60% 58% 54% 48% 42% 36% 31% 38% 34% 31% 31% 32% 32% 32% 31% 33% 58% 37% 37% 38% 26% 32% 28% 50% 80% 93% 97% 97% 92% 91% 79% 76% 57% 64% 59% 73% 63% 76% 64% 67% 62% 69%
Clouds
DEW PT 13° 11° 20° 27° 31° 31° 40° 40° 36° 29° 25° 22° 25° 25° 25° 20° 20° 16° 13° 13° 16° 13°
RH 73% 76% 79% 84% 83% 83% 83% 83% 87% 87% 91% 87% 91% 87% 76% 55% 57% 67% 70% 70% 73% 67% 66% 62% 62% 67% 82% 92% 92% 85% 88% 88% 71% 81% 88% 91% 65% 74% 83% 91% 71% 67%
POP 12HR 0% -- -- -- -- -- -- -- -- -- -- -- 1% -- -- -- -- 1% -- -- -- 2% -- -- -- 27% -- 90% -- 87% -- 35% -- 9% -- 9% -- 20% -- 22% -- 22%
RAIN/SNOW (liq.equ) 0.00in -- -- -- -- -- 0.00in -- -- -- -- -- 0.00in -- -- 0.00in -- 0.00in -- 0.00in -- 0.00in -- 0.00in -- 0.02in -- -- -- -- -- -- -- -- -- -- -- -- -- -- -- --
SNOWFALL 0in -- -- -- -- -- 0in -- -- -- -- -- 0in -- -- 0in -- 0in -- 0in -- 0in -- 0in -- 0in -- -- -- -- -- -- -- -- -- -- -- -- -- -- -- --
WIND SPEED(MPH) 7 7 6 5 2 1 1 1 2 2 2 2 2 5 6 6 7 7 7 7 8 7 9 13 14 14 15 9 7 6 6 6 6 6 7 7 8 8 7 8 8 7
WIND DIR N N N N N NW NW NW N N N N N NE NE E E E E E SE SE S S S S S W W NW NW NW W W W W W W W W W NW
HeatIndex 5 5 5 5 5 11 11 11 5 5 3 2 0 0 3 11 14 8 7 7 9 11 21 32 37 34 38 36 32 28 22 19 27 23 20 14 21 14 8 3 15 12
Snow -- -- -- -- -- -- -- -- -- -- -- -- -- -- -- -- -- -- -- -- -- -- -- -- -- -- -- -- -- Chance Slight Chance -- -- -- -- -- -- -- -- -- -- --
Snow Showers -- -- -- -- -- -- -- -- -- -- -- -- -- -- -- -- -- -- -- -- -- -- -- -- -- -- -- -- -- -- -- -- -- -- -- -- Slight Chance Slight Chance Slight Chance Slight Chance Slight Chance --
Rain -- -- -- -- -- -- -- -- -- -- -- -- -- -- -- -- -- -- -- -- -- -- -- -- -- -- -- -- -- Chance -- -- -- -- -- -- -- -- -- -- -- --
Rain Showers -- -- -- -- -- -- -- -- -- -- -- -- -- -- -- -- -- -- -- -- -- -- -- -- Slight Chance Chance Definite Definite Likely -- -- -- -- -- -- -- -- -- -- -- -- --
WIND CHILL -- -- -- -- -- -- -- -- -- 10° 14° 11° 11° 21° 33° 36° 34° 38° 35° 33° 29° 23° 18° 27° 23° 20° 14° 21° 14° 17° 14°
SPRAY COND
DRY COND
LIVESTOCK COLDSTRESS

Click on individual weather variable above in left-hand column (ie., TEMP, RH, QPF 12HR) to view state forecast maps






NWS 48 Hr. Forecast Maps,

Regional Hourly Observations For CARROLL County, Kentucky
Issued at 800 PM EST SAT JAN 19 2019
NORTHEAST KENTUCKY
  
CITY           SKY/WX    TMP DP  RH WIND       PRES   REMARKS
LEXINGTON      LGT RAIN  46  43  89 N13       29.41S                  
COVINGTON      FRZ RAIN  32  32 100 N23G33    29.55R FOG     WCI  19  
FRANKFORT      LGT RAIN  38  36  92 N14G26    29.44R WCI  30          


Current NOWCAST not available:
Nowcasts are not issued routinely during fair weather. Only when
precipitation or other significant weather is occuring in this county will these
forecasts be issued. Currently, there is no short term forecast in effect.


Fire Weather Forecast For CARROLL County, KY
Provided by the National Weather Service:

Issued at: Sat Jan 19 20:05:01 EST 2019

CLOUD COVER                    Cloudy       Cloudy        MCldy
PRECIP TYPE                 Snow/rain         Rain         None
CHANCE PRECIP (%)                 100           70            0
TEMP (24H TREND)              40 (+2)       34 (0)           38
RH % (24H TREND)             92 (+15)       96 (0)           75
20FTWND-AM(MPH)                 SE  5                   Lgt/Var
20FTWND-PM(MPH)                  S  6      Lgt/Var      Lgt/Var
PRECIP AMOUNT                    0.24         0.04         0.00
PRECIP DURATION                    11            2             
MIXING HGT(FT-AGL)               1580                      2790
TRANSPORT WND (MPH)              S 15                      E  2
LAL                                 1            1            1
HAINES INDEX                        3            3            3

REMARKS...None.

.FORECAST FOR DAYS 3 THROUGH 7...
.FRIDAY NIGHT...Cloudy with a chance of rain. Lows in the mid 30s.
Northeast winds around 5 mph. 
.SATURDAY...Rain. Highs in the upper 30s. Northeast winds 5 to 10 mph. 
.SUNDAY...Snow, rain and freezing rain. Colder. Lows around 16. Highs
around 19. North winds 10 to 15 mph. 
.MONDAY...Partly cloudy. Lows around 6. Highs in the lower 20s. East winds
5 to 10 mph. 
.TUESDAY...Mostly cloudy. A chance of rain and snow. Not as cool. Lows
around 19. Highs in the lower 40s. South winds 5 to 10 mph. 
.WEDNESDAY...Mostly cloudy with a chance of snow and rain. Lows around 30.
Highs in the upper 30s. West winds 5 to 10 mph. 

SPC's Fire Weather Web Tool (Excellent!), SPC's Fire Weather Outlooks, NWS Fire Weather WEB, Fire Danger Class Map,
Keetch-Byram Drought Index, ROMAN Web, Haines Index ,
WFAS's 10-hr Dead Fuel Moist., WFAS's 100-hr Dead Fuel Moist., Probablity of Ignition, Visual blackness Map, Palmer Drought Index, HPC's Rainfall Forecast Maps


Hazardous Weather Outlook For CARROLL County, Kentucky
455 PM EST Sat Jan 19 2019

   WINTER STORM WARNING IN EFFECT UNTIL 8 AM EST SUNDAY  

This Hazardous Weather Outlook is for Southeast Indiana, Northern 
Kentucky, South Central Ohio and Southwest Ohio.

 DAY ONE  Tonight.

Please listen to NOAA Weather Radio or go to weather.gov on the
Internet for more information about the following hazards.

   Winter Storm Warning.

Gusty winds up to 45 mph. Cold wind chill values expected.

 DAYS TWO THROUGH SEVEN  Sunday through Friday.

Please listen to NOAA Weather Radio or go to weather.gov on the
Internet for more information about the following hazards.

   Winter Storm Warning.

Gusty winds up to 40 mph Sunday morning. Cold wind chill values 
expected through Tuesday morning.

 SPOTTER INFORMATION STATEMENT  

Spotter activation is not expected at this time.

Latest CARROLL County, Kentucky Watches, Warnings and Advisories.
Additional Drought Info.: UKAWC Drought Page, Kentucky Drought Watch


7-Day Forecast For CARROLL County, KY


WINTER STORM WARNING IN EFFECT UNTIL 8 AM EST SUNDAY

TONIGHT
Rain and snow this evening, then snow after midnight. Snow accumulation of 2 to 4 inches. A trace of ice accumulation. Much cooler with lows around 15. North winds 15 to 20 mph with gusts up to 40 mph. Chance of precipitation 90 percent.

SUNDAY
Partly cloudy. Much cooler with highs 15 to 20. North winds 10 to 15 mph with gusts up to 30 mph. Wind chill values as low as 2 below.

SUNDAY NIGHT
Partly cloudy. Lows 5 to 10 above. North winds 5 to 10 mph.

MARTIN LUTHER KING JR DAY
Partly cloudy. Highs in the lower 20s. Northeast winds around 5 mph.

MONDAY NIGHT
Partly cloudy. Lows 15 to 20. East winds 5 to 10 mph.

TUESDAY
Mostly sunny in the morning, then becoming partly cloudy. Warmer with highs in the mid 40s.

TUESDAY NIGHT
Showers. Warmer with lows in the upper 30s. Chance of rain 90 percent.

WEDNESDAY
Rain showers in the morning, then rain showers with a chance of snow showers in the afternoon. Highs in the mid 40s. Temperatures falling into the mid 30s in the afternoon. Chance of precipitation 90 percent.

WEDNESDAY NIGHT
Mostly cloudy. A chance of snow and rain showers in the evening, then a chance of snow after midnight. Cooler with lows in the mid 20s. Chance of precipitation 50 percent.

THURSDAY
Mostly cloudy in the morning, then becoming partly cloudy. Highs in the lower 30s.

THURSDAY NIGHT
Partly cloudy. Lows in the lower 20s.

FRIDAY
Partly cloudy. Highs around 30.

FRIDAY NIGHT
Mostly cloudy in the evening, then becoming partly cloudy. Lows 10 to 15.

SATURDAY
Partly cloudy. Highs in the mid 20s.

Ag Weather Center, Department of Biosystems & Agricultural Engineering, University of Kentucky